Вернуться в каталог

STARLINK-36397

АктивенСвязьSSO
NORAD 67538·PAYLOAD·🇺🇸 United States

Запущен Jan 22, 2026 с Vandenberg Space Force Base

Loading…

Ближайшие Пролёты (ближайшие 24 часа)

TLE

СвежийSource: CelesTrak SupGP

Эпоха: Sep 14, 2026, 23:14 UTC

1 67538C 26014G   26257.96854167  .00047536  00000+0  14759-2 0  2579
2 67538  97.2848 143.4326 0001754  91.4985 213.2422 15.33408220    10

Отслеживайте STARLINK-36397 в реальном времени с AllMySat

Download on the App Store